"Pseudo-MPEC" for ST20F36

Created 2020 Jul 4 19:07:10 UT using Find_Orb

Click here for an explanation of pseudo-MPECs

 
 Astrometry: 
     ST20F36  C2020 06 25JMl_jFO]KK52yOPBkGBqxKjEN0Am:E@`*d`*9bhd3WQ3`'/,)RW[U68
     ST20F36  C2020 06 25#G+WxK!s2,]L6wiX;6liPNAstrometryS\W+98basmrOFxP?d\V6U68
     ST20F36  C2020 06 25M-Yredacted;+clickI\uo%LCX.TherecG%=@s5I?gy8+6HBcVUHU68
     ST20F36  C2020 06 25Y7D(qpOXZm4'rQ!kAJfordb$Vn:%jW5EYn]#vTMV]explanationU68

Station data:
(U68) JPL SynTrack Robotic Telescope, Auberry  (N37.070390 W119.412990)
   US/California.

Orbital elements:  ST20F36
   Perihelion 2020 Sep 11.639266 +/- 139 TT = 15:20:32 (JD 2459104.139266)
Epoch 2020 Jun 25.0 TT = JDT 2459025.5   Earth MOID: 0.0000   AutoNEOCP
M 287.59386141 +/- 100              (J2000 ecliptic)
n   0.92073772 +/- 0.305            Peri.  268.61318 +/- 40
a   1.04643460 +/- 0.231            Node    95.44050 +/- 55
e   0.1577625 +/- 0.179             Incl.   17.38635 +/- 23
P   1.07/390.98d           H 29.6   G  0.15   U 12.0  SR
q 0.88134637 +/- 0.369    Q 1.21152283 +/- 0.893
From 4 observations 2020 June 25 (41.8 min); mean residual 0".46
Residuals in arcseconds: 
200625 U68  .50+  .26-    200625 U68  .68+  .21+    
200625 U68  .66-  .26+    200625 U68  .53-  .21-    

Ephemerides (geocentric):
Date (UTC) HH   RA              Dec         delta   r     elong  mag " sig PA
---- -- -- --  -------------   -----------  ------ ------ -----  --- ---- ---
2020 07 04 19  08 29 05.098   -41 37 30.51  .04606 1.0003  67.9 27.1  39d 148
2020 07 04 20  08 29 05.070   -41 37 24.15  .04630 1.0002  67.9 27.1  39d 148
2020 07 04 21  08 29 05.039   -41 37 17.76  .04654 1.0001  67.9 27.1  39d 148
2020 07 04 22  08 29 05.004   -41 37 11.32  .04678 1.0000  67.9 27.1  39d 148
2020 07 04 23  08 29 04.965   -41 37 04.85  .04702 0.9999  67.8 27.1  39d 149
2020 07 05 00  08 29 04.922   -41 36 58.34  .04726 0.9998  67.8 27.2  39d 149
2020 07 05 01  08 29 04.876   -41 36 51.78  .04750 0.9997  67.8 27.2  39d 149
2020 07 05 02  08 29 04.826   -41 36 45.19  .04774 0.9996  67.8 27.2  39d 149
2020 07 05 03  08 29 04.773   -41 36 38.56  .04798 0.9995  67.8 27.2  39d 149
2020 07 05 04  08 29 04.717   -41 36 31.89  .04822 0.9994  67.8 27.2  39d 149
2020 07 05 05  08 29 04.657   -41 36 25.18  .04846 0.9993  67.7 27.2  39d 149
2020 07 05 06  08 29 04.593   -41 36 18.42  .04870 0.9992  67.7 27.2  39d 149
2020 07 05 07  08 29 04.527   -41 36 11.63  .04894 0.9991  67.7 27.2  39d 149
2020 07 05 08  08 29 04.457   -41 36 04.80  .04918 0.9991  67.7 27.2  39d 149
2020 07 05 09  08 29 04.384   -41 35 57.93  .04942 0.9990  67.7 27.2  39d 149
2020 07 05 10  08 29 04.308   -41 35 51.02  .04966 0.9989  67.6 27.3  39d 149
2020 07 05 11  08 29 04.229   -41 35 44.07  .04990 0.9988  67.6 27.3  39d 148
2020 07 05 12  08 29 04.146   -41 35 37.08  .05014 0.9987  67.6 27.3  39d 148
2020 07 05 13  08 29 04.061   -41 35 30.05  .05038 0.9986  67.6 27.3  39d 148
2020 07 05 14  08 29 03.972   -41 35 22.98  .05062 0.9985  67.6 27.3  39d 148
2020 07 05 15  08 29 03.881   -41 35 15.87  .05086 0.9984  67.6 27.3  39d 148
2020 07 05 16  08 29 03.787   -41 35 08.72  .05110 0.9983  67.5 27.3  39d 148
2020 07 05 17  08 29 03.690   -41 35 01.53  .05134 0.9982  67.5 27.3  39d 148
2020 07 05 18  08 29 03.590   -41 34 54.30  .05158 0.9981  67.5 27.3  39d 148
2020 07 05 19  08 29 03.487   -41 34 47.04  .05182 0.9980  67.5 27.4  39d 148
2020 07 05 20  08 29 03.382   -41 34 39.73  .05206 0.9979  67.5 27.4  39d 148
2020 07 05 21  08 29 03.273   -41 34 32.38  .05230 0.9978  67.4 27.4  39d 148
2020 07 05 22  08 29 03.163   -41 34 25.00  .05254 0.9977  67.4 27.4  39d 148
2020 07 05 23  08 29 03.049   -41 34 17.57  .05278 0.9976  67.4 27.4  39d 148
2020 07 06 00  08 29 02.933   -41 34 10.10  .05302 0.9975  67.4 27.4  39d 148
2020 07 06 01  08 29 02.814   -41 34 02.60  .05326 0.9974  67.4 27.4  39d 148
2020 07 06 02  08 29 02.693   -41 33 55.05  .05350 0.9973  67.4 27.4  39d 148
2020 07 06 03  08 29 02.569   -41 33 47.47  .05375 0.9972  67.3 27.4  39d 148
2020 07 06 04  08 29 02.443   -41 33 39.85  .05399 0.9971  67.3 27.4  39d 148
2020 07 06 05  08 29 02.314   -41 33 32.18  .05423 0.9970  67.3 27.5  39d 148
2020 07 06 06  08 29 02.182   -41 33 24.48  .05447 0.9969  67.3 27.5  39d 148
2020 07 06 07  08 29 02.049   -41 33 16.74  .05471 0.9968  67.3 27.5  39d 148
2020 07 06 08  08 29 01.913   -41 33 08.95  .05495 0.9967  67.3 27.5  39d 148
2020 07 06 09  08 29 01.775   -41 33 01.13  .05519 0.9966  67.2 27.5  39d 148
2020 07 06 10  08 29 01.634   -41 32 53.27  .05543 0.9965  67.2 27.5  39d 148
2020 07 06 11  08 29 01.491   -41 32 45.37  .05566 0.9964  67.2 27.5  39d 148
2020 07 06 12  08 29 01.346   -41 32 37.43  .05590 0.9963  67.2 27.5  39d 148
2020 07 06 13  08 29 01.198   -41 32 29.45  .05614 0.9962  67.2 27.5  39d 148
2020 07 06 14  08 29 01.049   -41 32 21.43  .05638 0.9961  67.1 27.5  39d 148
2020 07 06 15  08 29 00.897   -41 32 13.37  .05662 0.9960  67.1 27.5  39d 148
2020 07 06 16  08 29 00.743   -41 32 05.27  .05686 0.9959  67.1 27.6  39d 148
2020 07 06 17  08 29 00.587   -41 31 57.14  .05710 0.9958  67.1 27.6  39d 148
2020 07 06 18  08 29 00.429   -41 31 48.96  .05734 0.9957  67.1 27.6  39d 148